Location: Sobotiste
(48.7170°N, 17.4000°E)
Time: 18:40:56
(UTC+02:00)

SEEDS - Pass Details

Date: 22 March 2026
Orbit: 471 x 477 km, 97.8° (Epoch: 18 April)

Event Time Altitude Azimuth Distance (km) Brightness Sun altitude
Rises 05:17:15 0° 14° (NNE) 2,547 ? -6.1°
Reaches altitude 10° 05:19:20 10° 16° (NNE) 1,661 ? -5.8°
Maximum altitude 05:22:54 79° 104° (ESE) 492 ? -5.2°
Drops below altitude 10° 05:26:25 10° 191° (S) 1,641 ? -4.6°
Sets 05:28:28 0° 192° (SSW) 2,512 ? -4.3°
